Location: Eaton Estates
(41.3089°N, 82.0057°W)
Time: 16:26:02
(UTC+00:00)

Cosmos 1892 Rocket - Pass Details

Date: 17 June 2021
Orbit: 605 x 634 km, 82.5° (Epoch: 01 August)

Event Time Altitude Azimuth Distance (km) Brightness Sun altitude
Exits shadow 04:40:53 85° 48° (NE) 631 3.5 -24.4°
Drops below altitude 10° 04:45:14 10° 9° (N) 2,008 7.1 -24.5°
Sets 04:47:29 0° 9° (N) 2,924 8.2 -24.6°
